Hartford, CT

9:27 PM EDT on September 26, 2016 (GMT -0400)
Bradley International

Weather History for KBDL - March, 2014

Change the Weather History Date:

Friday, March 7, 2014

  Actual Average Record
Temperature  
Mean Temperature 19 °F 35 °F  
Max Temperature 35 °F 44 °F 69 °F (1974)
Min Temperature 3 °F 25 °F -6 °F (2003)
Degree Days  
Heating Degree Days 46 30  
Month to date heating degree days 310 218  
Since 1 July heating degree days 4989 4656  
Cooling Degree Days 0 0  
Month to date cooling degree days 0 0  
Year to date cooling degree days 0 0  
Moisture  
Dew Point 9 °F    
Average Humidity 63    
Maximum Humidity 79    
Minimum Humidity 47    
Precipitation  
Precipitation 0.00 in 0.11 in 1.50 in (2011)
Month to date precipitation T 0.77  
Year to date precipitation 7.37 6.89  
Snow  
Snow 0.00 in 0.20 in 8.40 in (1996)
Month to date snowfall T 1.8  
Since 1 July snowfall 50.1 34.5  
Snow Depth 10.00 in    
Sea Level Pressure  
Sea Level Pressure 30.26 in    
Wind  
Wind Speed 2 mph (North)    
Max Wind Speed 8 mph    
Max Gust Speed 10 mph    
Visibility 10 miles    
Events      
T = Trace of Precipitation, MM = Missing Value Source: NWS Daily Summary

Daily Weather History Graph

Daily Weather History Graph

Search for Another Location

Airport or City:

Trip Planner

Search our weather history database for the weather conditions in past years. The results will help you decide how hot, cold, wet, or windy it might be!

Date:

Astronomy

Mar. 07, 2014 Rise Set
Actual Time 6:16 AM EST 5:48 PM EST
Civil Twilight 5:48 AM EST 6:15 PM EST
Nautical Twilight 5:15 AM EST 6:48 PM EST
Astronomical Twilight 4:43 AM EST 7:20 PM EST
Moon 10:00 AM EST (3/7) No Moon Set
Length of Visible Light 12h 27m
Length of Day
11h 32m
Waxing Crescent, 42% of the Moon is Illuminated
Mar 7
Waxing Crescent
Mar 8
First Quarter
Mar 16
Full
Mar 23
Last Quarter
Mar 30
New

Hourly Weather History & Observations

Time (EST) Temp. Windchill Dew Point Humidity Pressure Visibility Wind Dir Wind Speed Gust Speed Precip Events Conditions
12:51 AM 10.0 °F - -0.0 °F 64% 30.51 in 10.0 mi Calm Calm - N/A   Scattered Clouds
1:51 AM 8.1 °F - -0.9 °F 67% 30.48 in 10.0 mi Calm Calm - N/A   Clear
2:51 AM 7.0 °F 0.1 °F -0.9 °F 70% 30.45 in 10.0 mi North 3.5 mph - N/A   Clear
3:51 AM 7.0 °F 0.1 °F -0.9 °F 70% 30.45 in 10.0 mi WNW 3.5 mph - N/A   Scattered Clouds
4:51 AM 5.0 °F - -2.0 °F 73% 30.43 in 10.0 mi Calm Calm - N/A   Partly Cloudy
5:51 AM 3.9 °F - -2.0 °F 76% 30.42 in 10.0 mi Calm Calm - N/A   Partly Cloudy
6:11 AM 3.9 °F - -2.0 °F 76% 30.41 in 9.0 mi Calm Calm - N/A   Mostly Cloudy
6:51 AM 6.1 °F - -0.9 °F 73% 30.43 in 9.0 mi Calm Calm - N/A   Mostly Cloudy
7:51 AM 8.1 °F 1.4 °F -0.9 °F 67% 30.41 in 10.0 mi NNE 3.5 mph - N/A   Mostly Cloudy
8:21 AM 10.9 °F 2.9 °F -0.0 °F 61% 30.38 in 10.0 mi North 4.6 mph - N/A   Mostly Cloudy
8:51 AM 12.9 °F 2.6 °F 1.0 °F 59% 30.38 in 10.0 mi NNE 6.9 mph - N/A   Mostly Cloudy
9:32 AM 18.0 °F 9.8 °F 1.9 °F 50% 30.36 in 10.0 mi NNE 5.8 mph - N/A   Mostly Cloudy
9:51 AM 19.0 °F 11.1 °F 3.9 °F 52% 30.37 in 10.0 mi NE 5.8 mph - N/A   Mostly Cloudy
10:43 AM 24.1 °F - 8.1 °F 51% 30.34 in 10.0 mi Calm Calm - N/A   Mostly Cloudy
10:51 AM 25.0 °F - 9.0 °F 51% 30.35 in 10.0 mi Calm Calm - N/A   Mostly Cloudy
11:51 AM 27.0 °F - 15.1 °F 61% 30.32 in 10.0 mi Calm Calm - N/A   Mostly Cloudy
12:51 PM 30.9 °F - 16.0 °F 54% 30.25 in 10.0 mi Calm Calm - N/A   Mostly Cloudy
1:51 PM 33.1 °F - 15.1 °F 48% 30.20 in 10.0 mi Calm Calm - N/A   Mostly Cloudy
2:51 PM 34.0 °F - 16.0 °F 48% 30.16 in 10.0 mi Calm Calm - N/A   Mostly Cloudy
3:48 PM 33.8 °F - 17.6 °F 52% 30.12 in 10.0 mi Calm Calm - N/A   Mostly Cloudy
3:51 PM 34.0 °F - 16.0 °F 48% 30.12 in 10.0 mi Calm Calm - N/A   Mostly Cloudy
4:51 PM 34.0 °F 29.8 °F 17.1 °F 50% 30.12 in 10.0 mi NNW 4.6 mph - N/A   Overcast
5:43 PM 34.0 °F 28.8 °F 17.1 °F 50% 30.08 in 10.0 mi NE 5.8 mph - N/A   Mostly Cloudy
5:51 PM 34.0 °F 29.8 °F 17.1 °F 50% 30.09 in 10.0 mi NE 4.6 mph - N/A   Mostly Cloudy
6:20 PM 34.0 °F 31.0 °F 19.9 °F 56% 30.07 in 10.0 mi NE 3.5 mph - N/A   Overcast
6:51 PM 34.0 °F - 18.0 °F 52% 30.08 in 10.0 mi Calm Calm - N/A   Overcast
7:51 PM 34.0 °F 31.0 °F 18.0 °F 52% 30.05 in 10.0 mi North 3.5 mph - N/A   Overcast
8:51 PM 34.0 °F 31.0 °F 19.0 °F 54% 30.05 in 10.0 mi North 3.5 mph - N/A   Overcast
9:51 PM 34.0 °F - 19.0 °F 54% 30.02 in 10.0 mi Calm Calm - N/A   Overcast
10:51 PM 33.1 °F 27.7 °F 21.0 °F 61% 29.98 in 10.0 mi North 5.8 mph - N/A   Overcast
11:51 PM 33.1 °F 27.7 °F 19.9 °F 59% 29.94 in 10.0 mi North 5.8 mph - N/A   Overcast